FJL820 OPKC-OPST

Flight info

Callsign FJL820
Flight time N/A
Altitude 39000
Route BADUL1D BADUL Z302 NH Z306 FALSA
Aircraft A320/M-SDE3FGHIRWY/LB1

Departure

Time 2026-05-06 09:46
Airport Jinnah International Airport (OPKC)

Arrival

Time N/A
Airport Sialkot International Airport (OPST)
Time Latitude Longitude Altitude Speed Heading
2026-05-06 09:19 24.90108 67.16549 101 ft 0 kts 45°
2026-05-06 09:32 24.90104 67.16545 101 ft 2 kts 45°
2026-05-06 09:32 24.90092 67.16531 100 ft 2 kts 45°
2026-05-06 09:32 24.90080 67.16518 99 ft 2 kts 45°
2026-05-06 09:33 24.90067 67.16505 100 ft 2 kts 44°
2026-05-06 09:33 24.90053 67.16497 99 ft 2 kts 333°
2026-05-06 09:33 24.90048 67.16499 100 ft 0 kts 318°
2026-05-06 09:39 24.90067 67.16481 101 ft 12 kts 318°
2026-05-06 09:39 24.90163 67.16415 101 ft 17 kts 340°
2026-05-06 09:39 24.90224 67.16394 101 ft 2 kts 344°
2026-05-06 09:40 24.90232 67.16392 101 ft 1 kts 344°
2026-05-06 09:40 24.90233 67.16391 101 ft 1 kts 344°
2026-05-06 09:40 24.90363 67.16363 102 ft 10 kts
2026-05-06 09:41 24.90401 67.16406 101 ft 7 kts 66°
2026-05-06 09:41 24.90415 67.16453 101 ft 6 kts 73°
2026-05-06 09:41 24.90430 67.16508 101 ft 9 kts 74°
2026-05-06 09:41 24.90445 67.16569 102 ft 7 kts 75°
2026-05-06 09:42 24.90456 67.16618 102 ft 6 kts 75°
2026-05-06 09:42 24.90466 67.16660 102 ft 5 kts 75°
2026-05-06 09:42 24.90475 67.16700 102 ft 7 kts 75°
2026-05-06 09:42 24.90492 67.16770 102 ft 10 kts 75°
2026-05-06 09:43 24.90511 67.16841 102 ft 9 kts 71°
2026-05-06 09:43 24.90529 67.16896 102 ft 7 kts 73°
2026-05-06 09:43 24.90540 67.16945 102 ft 6 kts 76°
2026-05-06 09:43 24.90554 67.16988 102 ft 5 kts 56°
2026-05-06 09:44 24.90580 67.17006 102 ft 4 kts 15°
2026-05-06 09:44 24.90613 67.17002 103 ft 12 kts 349°
2026-05-06 09:44 24.90696 67.16980 106 ft 10 kts 343°
2026-05-06 09:44 24.90731 67.16956 106 ft 0 kts 305°
2026-05-06 09:45 24.90731 67.16948 107 ft 3 kts 280°
2026-05-06 09:45 24.90728 67.16906 107 ft 15 kts 261°
2026-05-06 09:45 24.90638 67.16546 103 ft 90 kts 254°
2026-05-06 09:45 24.90416 67.15690 105 ft 153 kts 253°
2026-05-06 09:46 24.90081 67.14416 641 ft 170 kts 251°
2026-05-06 09:46 24.89949 67.13128 1428 ft 173 kts 283°
2026-05-06 09:46 24.90726 67.12035 1984 ft 203 kts 329°
2026-05-06 09:46 24.92212 67.11794 2462 ft 236 kts 13°
2026-05-06 09:47 24.93703 67.12697 2920 ft 259 kts 44°
2026-05-06 09:47 24.94903 67.14216 3658 ft 267 kts 55°
2026-05-06 09:47 24.95978 67.15902 4547 ft 269 kts 56°
2026-05-06 09:47 24.97052 67.17619 5400 ft 273 kts 55°
2026-05-06 09:48 24.98159 67.19315 6282 ft 274 kts 52°
2026-05-06 09:48 24.99297 67.20967 7209 ft 271 kts 50°
2026-05-06 09:48 25.00478 67.22611 8143 ft 270 kts 49°
2026-05-06 09:48 25.01647 67.24197 9083 ft 269 kts 47°
2026-05-06 09:49 25.02837 67.25787 10235 ft 268 kts 47°
2026-05-06 09:49 25.04035 67.27373 11286 ft 270 kts 47°
2026-05-06 09:49 25.05245 67.28967 12355 ft 271 kts 45°
2026-05-06 09:49 25.06469 67.30579 13362 ft 275 kts 47°
2026-05-06 09:50 25.07710 67.32220 14243 ft 280 kts 46°
2026-05-06 09:50 25.08965 67.33887 15044 ft 285 kts 45°
2026-05-06 09:50 25.10244 67.35568 15813 ft 288 kts 43°
2026-05-06 09:50 25.11755 67.37097 16083 ft 302 kts 37°
2026-05-06 09:51 25.13409 67.38623 16194 ft 321 kts 36°
2026-05-06 09:51 25.15185 67.40247 16341 ft 340 kts 36°
2026-05-06 09:51 25.17052 67.41955 16454 ft 357 kts 37°
2026-05-06 09:51 25.19010 67.43753 16581 ft 373 kts 36°
2026-05-06 09:52 25.21040 67.45624 16702 ft 388 kts 37°
2026-05-06 09:52 25.23114 67.47543 16918 ft 398 kts 37°
2026-05-06 09:52 25.25293 67.49552 17322 ft 403 kts 36°
2026-05-06 09:52 25.27444 67.51525 17767 ft 407 kts 36°
2026-05-06 09:53 25.29637 67.53530 18192 ft 411 kts 37°
2026-05-06 09:53 25.31852 67.55553 18566 ft 414 kts 36°
2026-05-06 09:53 25.34080 67.57587 18948 ft 417 kts 36°
2026-05-06 09:53 25.35569 67.58946 19217 ft 419 kts 36°
2026-05-06 09:54 25.38568 67.61687 19759 ft 422 kts 36°
2026-05-06 09:54 25.40837 67.63766 20170 ft 424 kts 36°
2026-05-06 09:54 25.42352 67.65155 20437 ft 426 kts 36°
2026-05-06 09:54 25.44650 67.67262 20838 ft 428 kts 36°
2026-05-06 09:55 25.46951 67.69372 21204 ft 430 kts 36°
2026-05-06 09:55 25.49263 67.71491 21602 ft 433 kts 35°
2026-05-06 09:55 25.51596 67.73631 21988 ft 435 kts 35°
2026-05-06 09:55 25.53934 67.75780 22363 ft 437 kts 35°
2026-05-06 09:56 25.56280 67.77940 22732 ft 439 kts 35°
2026-05-06 09:56 25.58638 67.80115 23086 ft 441 kts 35°
2026-05-06 09:56 25.61007 67.82298 23400 ft 443 kts 35°
2026-05-06 09:56 25.63396 67.84498 23679 ft 446 kts 34°
2026-05-06 09:57 25.65784 67.86697 23950 ft 448 kts 34°
2026-05-06 09:57 25.68160 67.88885 24185 ft 450 kts 34°
2026-05-06 09:57 25.70574 67.91111 24274 ft 450 kts 34°
2026-05-06 09:57 25.72988 67.93336 24563 ft 452 kts 34°
2026-05-06 09:58 25.75424 67.95584 24824 ft 454 kts 34°
2026-05-06 09:58 25.77860 67.97835 25092 ft 456 kts 34°
2026-05-06 09:58 25.80280 68.00072 25349 ft 458 kts 34°
2026-05-06 09:58 25.82734 68.02346 25604 ft 460 kts 33°
2026-05-06 09:59 25.85190 68.04622 25851 ft 462 kts 33°
2026-05-06 09:59 25.87661 68.06910 26088 ft 463 kts 33°
2026-05-06 09:59 25.90125 68.09192 26333 ft 465 kts 33°
2026-05-06 09:59 25.92647 68.11530 26570 ft 467 kts 33°
2026-05-06 10:00 25.95133 68.13836 26796 ft 469 kts 33°
2026-05-06 10:00 25.97671 68.16192 27034 ft 470 kts 33°
2026-05-06 10:00 26.00157 68.18502 27255 ft 472 kts 33°
2026-05-06 10:00 26.02677 68.20843 27477 ft 473 kts 32°
2026-05-06 10:01 26.05206 68.23195 27735 ft 474 kts 32°
2026-05-06 10:01 26.07729 68.25545 28077 ft 473 kts 32°
2026-05-06 10:01 26.10235 68.27879 28401 ft 472 kts 32°
2026-05-06 10:01 26.12777 68.30250 28727 ft 471 kts 32°
2026-05-06 10:02 26.15298 68.32604 29040 ft 470 kts 31°
2026-05-06 10:02 26.17792 68.34935 28934 ft 467 kts 31°